Weather History for KVKS - March, 2014

Change the Weather History Date:

Tuesday, March 11, 2014

  Actual Average (KTVR) Record (KTVR)
Temperature  
Mean Temperature 60 °F 56 °F  
Max Temperature 71 °F 67 °F 87 °F (2006)
Min Temperature 50 °F 45 °F 25 °F (1998)
Degree Days  
Heating Degree Days 4 10  
Month to date heating degree days 119  
Since 1 July heating degree days 2095  
Cooling Degree Days 0 1  
Month to date cooling degree days 8  
Year to date cooling degree days 17  
Growing Degree Days 10 (Base 50)    
Moisture  
Dew Point 58 °F    
Average Humidity 88    
Maximum Humidity 100    
Minimum Humidity 69    
Precipitation  
Precipitation 0.00 in 0.17 in 2.73 in (1973)
Month to date precipitation 2.02  
Year to date precipitation 12.36  
Sea Level Pressure  
Sea Level Pressure 29.78 in    
Wind  
Wind Speed 3 mph (SSE)    
Max Wind Speed 15 mph    
Max Gust Speed 18 mph    
Visibility 8 miles    
Events Fog    
T = Trace of Precipitation, MM = Missing Value Source: NWS Daily Summary

Daily Weather History Graph

Daily Weather History Graph

Search for Another Location

Airport or City:

Trip Planner

Search our weather history database for the weather conditions in past years. The results will help you decide how hot, cold, wet, or windy it might be!

Date:

Astronomy

Mar. 11, 2014 Rise Set
Actual Time 7:18 AM CDT 7:08 PM CDT
Civil Twilight 6:54 AM CDT 7:33 PM CDT
Nautical Twilight 6:26 AM CDT 8:01 PM CDT
Astronomical Twilight 5:57 AM CDT 8:30 PM CDT
Moon 2:57 PM CDT (3/11) 4:00 AM CDT (3/11)
Length of Visible Light 12h 38m
Length of Day
11h 49m
Waxing Gibbous, 78% of the Moon is Illuminated
Mar 11
Waxing Gibbous
Mar 16
Full
Mar 23
Last Quarter
Mar 30
New
Apr 7
First Quarter

Hourly Weather History & Observations

Time (CDT) Temp. Dew Point Humidity Pressure Visibility Wind Dir Wind Speed Gust Speed Precip Events Conditions
12:15 AM 55.4 °F 51.8 °F 88% 29.93 in 10.0 mi Calm Calm - N/A   Partly Cloudy
12:35 AM 55.4 °F 51.8 °F 88% 29.92 in 10.0 mi SSE 3.5 mph - N/A   Clear
12:55 AM 57.2 °F 53.6 °F 88% 29.91 in 10.0 mi South 4.6 mph - N/A   Clear
1:15 AM 62.6 °F 53.6 °F 72% 29.90 in 10.0 mi South 8.1 mph - N/A   Clear
1:35 AM 62.6 °F 55.4 °F 77% 29.89 in 10.0 mi South 8.1 mph - N/A   Clear
1:55 AM 64.4 °F 55.4 °F 73% 29.89 in 10.0 mi SSW 6.9 mph - N/A   Clear
2:15 AM 60.8 °F 53.6 °F 77% 29.89 in 10.0 mi Calm Calm - N/A   Scattered Clouds
2:35 AM 57.2 °F 51.8 °F 82% 29.90 in 10.0 mi Calm Calm - N/A   Partly Cloudy
2:55 AM 59.0 °F 53.6 °F 82% 29.89 in 10.0 mi Calm Calm - N/A   Partly Cloudy
3:15 AM 55.4 °F 51.8 °F 88% 29.88 in 10.0 mi Calm Calm - N/A   Clear
3:35 AM 53.6 °F 50.0 °F 88% 29.87 in 10.0 mi Calm Calm - N/A   Clear
3:55 AM 51.8 °F 50.0 °F 94% 29.86 in 10.0 mi Calm Calm - N/A   Clear
4:15 AM 53.6 °F 50.0 °F 88% 29.86 in 10.0 mi Calm Calm - N/A   Partly Cloudy
4:35 AM 51.8 °F 50.0 °F 94% 29.86 in 10.0 mi Calm Calm - N/A   Clear
4:55 AM 51.8 °F 50.0 °F 94% 29.85 in 10.0 mi Calm Calm - N/A   Partly Cloudy
5:15 AM 50.0 °F 48.2 °F 94% 29.85 in 10.0 mi Calm Calm - N/A   Partly Cloudy
5:35 AM 50.0 °F 50.0 °F 100% 29.85 in 9.0 mi Calm Calm - N/A   Scattered Clouds
5:55 AM 51.8 °F 50.0 °F 94% 29.85 in 9.0 mi Calm Calm - N/A   Overcast
6:15 AM 51.8 °F 50.0 °F 94% 29.84 in 8.0 mi Calm Calm - N/A   Overcast
6:35 AM 53.6 °F 51.8 °F 94% 29.83 in 9.0 mi Calm Calm - N/A   Overcast
6:55 AM 51.8 °F 50.0 °F 94% 29.83 in 8.0 mi Calm Calm - N/A   Scattered Clouds
7:15 AM 51.8 °F 50.0 °F 94% 29.85 in 8.0 mi Calm Calm - N/A   Mostly Cloudy
7:35 AM 53.6 °F 51.8 °F 94% 29.86 in 6.0 mi Calm Calm - N/A   Overcast
7:55 AM 55.4 °F 53.6 °F 94% 29.86 in 6.0 mi Calm Calm - N/A   Overcast
8:15 AM 57.2 °F 53.6 °F 88% 29.85 in 5.0 mi Calm Calm - N/A   Overcast
8:35 AM 57.2 °F 53.6 °F 88% 29.85 in 8.0 mi Calm Calm - N/A   Overcast
8:55 AM 57.2 °F 53.6 °F 88% 29.85 in 9.0 mi Calm Calm - N/A   Overcast
9:15 AM 59.0 °F 55.4 °F 88% 29.84 in 8.0 mi Calm Calm - N/A   Overcast
9:35 AM 60.8 °F 55.4 °F 82% 29.85 in 8.0 mi Calm Calm - N/A   Overcast
9:55 AM 60.8 °F 55.4 °F 82% 29.84 in 9.0 mi Calm Calm - N/A   Overcast
10:15 AM 62.6 °F 55.4 °F 77% 29.84 in 10.0 mi Calm Calm - N/A   Mostly Cloudy
10:35 AM 62.6 °F 55.4 °F 77% 29.83 in 10.0 mi SSE 4.6 mph - N/A   Overcast
10:55 AM 64.4 °F 55.4 °F 73% 29.83 in 10.0 mi East 3.5 mph - N/A   Overcast
11:15 AM 64.4 °F 57.2 °F 77% 29.82 in 7.0 mi SE 5.8 mph - N/A   Overcast
11:35 AM 66.2 °F 57.2 °F 73% 29.82 in 10.0 mi Calm Calm - N/A   Overcast
11:55 AM 66.2 °F 57.2 °F 73% 29.81 in 10.0 mi ESE 4.6 mph - N/A   Overcast
12:15 PM 68.0 °F 59.0 °F 73% 29.79 in 9.0 mi SSE 4.6 mph - N/A   Overcast
12:35 PM 69.8 °F 60.8 °F 73% 29.78 in 10.0 mi Variable 4.6 mph - N/A   Overcast
12:55 PM 69.8 °F 60.8 °F 73% 29.77 in 10.0 mi SSE 6.9 mph - N/A   Overcast
1:15 PM 71.6 °F 60.8 °F 69% 29.76 in 4.0 mi Variable 6.9 mph - N/A   Haze
1:35 PM 71.6 °F 60.8 °F 69% 29.75 in 10.0 mi SE 4.6 mph - N/A   Mostly Cloudy
1:55 PM 69.8 °F 62.6 °F 78% 29.74 in 2.0 mi SE 5.8 mph - N/A   Haze
2:15 PM 68.0 °F 62.6 °F 83% 29.73 in 2.0 mi SSE 9.2 mph - N/A   Scattered Clouds
2:35 PM 66.2 °F 64.4 °F 94% 29.72 in 0.5 mi ESE 4.6 mph - N/A Fog Fog
2:55 PM 66.2 °F 64.4 °F 94% 29.71 in 1.0 mi Calm Calm - N/A   Mostly Cloudy
3:15 PM 66.2 °F 64.4 °F 94% 29.70 in 1.5 mi ESE 3.5 mph - N/A   Overcast
3:35 PM 66.2 °F 64.4 °F 94% 29.70 in 3.0 mi Calm Calm - N/A   Mostly Cloudy
3:55 PM 66.2 °F 64.4 °F 94% 29.69 in 3.0 mi Calm Calm - N/A   Mostly Cloudy
4:15 PM 66.2 °F 64.4 °F 94% 29.68 in 1.8 mi SE 4.6 mph - N/A   Overcast
4:35 PM 66.2 °F 64.4 °F 94% 29.68 in 1.0 mi SE 3.5 mph - N/A   Overcast
4:55 PM 66.2 °F 64.4 °F 94% 29.69 in 0.8 mi South 9.2 mph - N/A   Overcast
5:15 PM 66.2 °F 64.4 °F 94% 29.70 in 2.0 mi Calm Calm - N/A   Overcast
5:35 PM 66.2 °F 64.4 °F 94% 29.70 in 5.0 mi Calm Calm - N/A   Scattered Clouds
5:55 PM 66.2 °F 64.4 °F 94% 29.69 in 4.0 mi South 6.9 mph - N/A   Mostly Cloudy
6:15 PM 64.4 °F 64.4 °F 100% 29.69 in 3.0 mi South 9.2 mph - N/A   Mostly Cloudy
6:35 PM 64.4 °F 64.4 °F 100% 29.68 in 4.0 mi South 10.4 mph - N/A   Scattered Clouds
6:55 PM 64.4 °F 64.4 °F 100% 29.67 in 9.0 mi SSE 9.2 mph - N/A   Clear
7:15 PM 64.4 °F 64.4 °F 100% 29.66 in 8.0 mi South 15.0 mph - N/A   Mostly Cloudy
7:35 PM 64.4 °F 62.6 °F 94% 29.64 in 10.0 mi SSE 12.7 mph 18.4 mph N/A   Overcast
7:55 PM 64.4 °F 62.6 °F 94% 29.62 in 10.0 mi SSE 12.7 mph 18.4 mph N/A   Mostly Cloudy
8:15 PM 64.4 °F 62.6 °F 94% 29.64 in 10.0 mi South 9.2 mph 15.0 mph N/A   Scattered Clouds
8:35 PM 64.4 °F 62.6 °F 94% 29.67 in 10.0 mi West 5.8 mph - N/A   Mostly Cloudy
8:55 PM 64.4 °F 62.6 °F 94% 29.67 in 8.0 mi Calm Calm - N/A   Overcast
9:15 PM 62.6 °F 62.6 °F 100% 29.66 in 4.0 mi ESE 3.5 mph - N/A   Mostly Cloudy
9:35 PM 64.4 °F 62.6 °F 94% 29.67 in 9.0 mi South 3.5 mph - N/A   Overcast
9:55 PM 64.4 °F 62.6 °F 94% 29.67 in 10.0 mi SE 4.6 mph - N/A   Overcast
10:15 PM 64.4 °F 62.6 °F 94% 29.69 in 10.0 mi South 8.1 mph - N/A   Overcast
10:35 PM 64.4 °F 62.6 °F 94% 29.69 in 10.0 mi SSE 6.9 mph - N/A   Overcast
10:55 PM 64.4 °F 62.6 °F 94% 29.70 in 10.0 mi South 6.9 mph - N/A   Overcast
11:15 PM 64.4 °F 62.6 °F 94% 29.70 in 9.0 mi South 5.8 mph - N/A   Overcast
11:35 PM 64.4 °F 62.6 °F 94% 29.71 in 10.0 mi South 4.6 mph - N/A   Overcast
11:55 PM 62.6 °F 62.6 °F 100% 29.71 in 7.0 mi South 4.6 mph - N/A   Mostly Cloudy